| time (UTC) | temp F | wind direction | speed MPH | gust MPH | rain 1hr in | rain 24hr in | rain mn in | humidity % | barometer mb |
| 20260830234549 | 97 | 104 | 0.0 | 4.0 | 0.00 | 0.00 | 0.00 | 47 | 1005.0 |
| 20260830233054 | 98 | 114 | 1.0 | 5.0 | 0.00 | 0.00 | 0.00 | 47 | 1004.9 |
| 20260830231547 | 98 | 124 | 1.0 | 6.0 | 0.00 | 0.00 | 0.00 | 46 | 1004.8 |
| 20260830230048 | 98 | 106 | 1.0 | 8.0 | 0.00 | 0.00 | 0.00 | 46 | 1004.8 |
| 20260830224545 | 98 | 144 | 3.0 | 7.0 | 0.00 | 0.00 | 0.00 | 45 | 1004.6 |
| 20260830223044 | 99 | 118 | 3.0 | 10.0 | 0.00 | 0.00 | 0.00 | 45 | 1004.7 |
| 20260830221543 | 99 | 182 | 1.0 | 9.0 | 0.00 | 0.00 | 0.00 | 45 | 1004.8 |
| 20260830220042 | 99 | 114 | 4.0 | 12.0 | 0.00 | 0.00 | 0.00 | 43 | 1004.8 |
| 20260830214642 | 99 | 206 | 5.0 | 13.0 | 0.00 | 0.00 | 0.00 | 43 | 1004.9 |
| 20260830213039 | 99 | 194 | 3.0 | 7.0 | 0.00 | 0.00 | 0.00 | 44 | 1005.0 |
| 20260830211548 | 99 | 237 | 3.0 | 9.0 | 0.00 | 0.00 | 0.00 | 44 | 1005.1 |
| 20260830210036 | 99 | 98 | 4.0 | 14.0 | 0.00 | 0.00 | 0.00 | 44 | 1005.4 |
| 20260830204534 | 98 | 90 | 3.0 | 13.0 | 0.00 | 0.00 | 0.00 | 45 | 1005.7 |
| 20260830203032 | 98 | 161 | 3.0 | 10.0 | 0.00 | 0.00 | 0.00 | 48 | 1005.6 |
| 20260830201536 | 98 | 195 | 2.0 | 10.0 | 0.00 | 0.00 | 0.00 | 46 | 1005.9 |
| 20260830200026 | 98 | 174 | 4.0 | 10.0 | 0.00 | 0.00 | 0.00 | 46 | 1006.1 |
| 20260830194524 | 97 | 231 | 5.0 | 11.0 | 0.00 | 0.00 | 0.00 | 46 | 1006.3 |
| 20260830193023 | 96 | 137 | 4.0 | 11.0 | 0.00 | 0.00 | 0.00 | 48 | 1006.4 |
| 20260830191518 | 95 | 187 | 2.0 | 13.0 | 0.00 | 0.00 | 0.00 | 51 | 1006.4 |
| 20260830190018 | 94 | 147 | 5.0 | 11.0 | 0.00 | 0.00 | 0.00 | 50 | 1006.6 |
| 20260830184513 | 94 | 229 | 5.0 | 15.0 | 0.00 | 0.00 | 0.00 | 51 | 1006.7 |
| 20260830183016 | 94 | 269 | 3.0 | 8.0 | 0.00 | 0.00 | 0.00 | 53 | 1006.8 |
| 20260830181507 | 93 | 242 | 4.0 | 15.0 | 0.00 | 0.00 | 0.00 | 53 | 1007.1 |
| 20260830180004 | 92 | 189 | 2.0 | 12.0 | 0.00 | 0.00 | 0.00 | 54 | 1007.2 |
| 20260830174508 | 91 | 195 | 5.0 | 11.0 | 0.00 | 0.00 | 0.00 | 53 | 1007.2 |
| 20260830173104 | 91 | 140 | 4.0 | 9.0 | 0.00 | 0.00 | 0.00 | 54 | 1007.3 |
| 20260830171606 | 90 | 234 | 3.0 | 14.0 | 0.00 | 0.00 | 0.00 | 55 | 1007.4 |
| 20260830170056 | 90 | 101 | 3.0 | 11.0 | 0.00 | 0.00 | 0.00 | 56 | 1007.7 |
| 20260830164554 | 89 | 141 | 1.0 | 16.0 | 0.00 | 0.00 | 0.00 | 57 | 1007.7 |
| 20260830163059 | 88 | 193 | 1.0 | 10.0 | 0.00 | 0.00 | 0.00 | 58 | 1007.9 |
| 20260830161550 | 87 | 174 | 2.0 | 10.0 | 0.00 | 0.00 | 0.00 | 59 | 1008.0 |
| 20260830160058 | 86 | 103 | 3.0 | 10.0 | 0.00 | 0.00 | 0.00 | 60 | 1007.9 |
| 20260830154542 | 85 | 168 | 4.0 | 12.0 | 0.00 | 0.00 | 0.00 | 61 | 1007.9 |
| 20260830153039 | 84 | 235 | 6.0 | 10.0 | 0.00 | 0.00 | 0.00 | 61 | 1007.9 |
| 20260830151541 | 84 | 194 | 3.0 | 9.0 | 0.00 | 0.00 | 0.00 | 60 | 1007.8 |
| 20260830150035 | 83 | 211 | 3.0 | 13.0 | 0.00 | 0.00 | 0.00 | 61 | 1007.7 |
| 20260830144535 | 83 | 274 | 3.0 | 10.0 | 0.00 | 0.00 | 0.00 | 62 | 1007.6 |
| 20260830143040 | 82 | 268 | 2.0 | 10.0 | 0.00 | 0.00 | 0.00 | 62 | 1007.5 |
| 20260830141536 | 81 | 205 | 3.0 | 12.0 | 0.00 | 0.00 | 0.00 | 63 | 1007.6 |
| 20260830140031 | 80 | 154 | 2.0 | 11.0 | 0.00 | 0.00 | 0.00 | 63 | 1007.7 |
| 20260830134540 | 79 | 211 | 2.0 | 9.0 | 0.00 | 0.00 | 0.00 | 64 | 1007.7 |
| 20260830133030 | 79 | 222 | 4.0 | 13.0 | 0.00 | 0.00 | 0.00 | 63 | 1007.7 |
| 20260830131534 | 79 | 168 | 1.0 | 18.0 | 0.00 | 0.00 | 0.00 | 64 | 1007.8 |
| 20260830130031 | 79 | 275 | 3.0 | 17.0 | 0.00 | 0.00 | 0.00 | 64 | 1008.0 |
| 20260830124529 | 78 | 226 | 5.0 | 13.0 | 0.00 | 0.00 | 0.00 | 64 | 1008.0 |
| 20260830123038 | 78 | 210 | 2.0 | 9.0 | 0.00 | 0.00 | 0.00 | 63 | 1008.1 |
| 20260830121537 | 78 | 108 | 3.0 | 12.0 | 0.00 | 0.00 | 0.00 | 63 | 1008.1 |
| 20260830120029 | 78 | 185 | 1.0 | 9.0 | 0.00 | 0.00 | 0.00 | 62 | 1008.1 |
| 20260830114526 | 78 | 158 | 2.0 | 8.0 | 0.00 | 0.00 | 0.00 | 62 | 1008.1 |
| 20260830113024 | 78 | 185 | 3.0 | 10.0 | 0.00 | 0.00 | 0.00 | 62 | 1008.1 |
| 20260830111523 | 78 | 268 | 2.0 | 10.0 | 0.00 | 0.00 | 0.00 | 62 | 1008.1 |
| 20260830110022 | 79 | 186 | 2.0 | 7.0 | 0.00 | 0.00 | 0.00 | 61 | 1008.2 |
| 20260830104523 | 79 | 217 | 2.0 | 8.0 | 0.00 | 0.00 | 0.00 | 61 | 1008.2 |
| 20260830103025 | 79 | 132 | 1.0 | 7.0 | 0.00 | 0.00 | 0.00 | 61 | 1008.1 |
| 20260830101519 | 79 | 190 | 1.0 | 8.0 | 0.00 | 0.00 | 0.00 | 61 | 1008.0 |
| 20260830100018 | 79 | 135 | 2.0 | 9.0 | 0.00 | 0.00 | 0.00 | 60 | 1008.0 |
| 20260830094518 | 79 | 201 | 3.0 | 7.0 | 0.00 | 0.00 | 0.00 | 60 | 1008.0 |
| 20260830093016 | 80 | 167 | 3.0 | 9.0 | 0.00 | 0.00 | 0.00 | 60 | 1008.0 |
| 20260830091528 | 80 | 134 | 2.0 | 7.0 | 0.00 | 0.00 | 0.00 | 59 | 1007.9 |
| 20260830090016 | 80 | 175 | 1.0 | 9.0 | 0.00 | 0.00 | 0.00 | 59 | 1008.0 |
| 20260830084515 | 79 | 98 | 2.0 | 7.0 | 0.00 | 0.00 | 0.00 | 60 | 1008.0 |
| 20260830083014 | 79 | 245 | 1.0 | 7.0 | 0.00 | 0.00 | 0.00 | 61 | 1007.9 |
| 20260830081513 | 79 | 130 | 2.0 | 5.0 | 0.00 | 0.00 | 0.00 | 62 | 1007.8 |
| 20260830080013 | 79 | 126 | 1.0 | 3.0 | 0.00 | 0.00 | 0.00 | 62 | 1007.8 |
| 20260830074511 | 80 | 127 | 1.0 | 5.0 | 0.00 | 0.00 | 0.00 | 62 | 1007.8 |
| 20260830073011 | 80 | 97 | 0.0 | 7.0 | 0.00 | 0.00 | 0.00 | 62 | 1007.7 |
| 20260830071510 | 80 | 100 | 0.0 | 5.0 | 0.00 | 0.00 | 0.00 | 62 | 1007.9 |
| 20260830070008 | 80 | 147 | 1.0 | 6.0 | 0.00 | 0.00 | 0.00 | 63 | 1007.9 |
| 20260830064513 | 80 | 133 | 0.0 | 4.0 | 0.00 | 0.00 | 0.00 | 63 | 1008.0 |
| 20260830063005 | 81 | 122 | 0.0 | 3.0 | 0.00 | 0.00 | 0.00 | 63 | 1008.0 |
| 20260830061503 | 81 | 122 | 0.0 | 3.0 | 0.00 | 0.00 | 0.00 | 62 | 1008.0 |
| 20260830060001 | 82 | 123 | 1.0 | 3.0 | 0.00 | 0.00 | 0.00 | 61 | 1008.1 |
| 20260830054603 | 82 | 113 | 1.0 | 4.0 | 0.00 | 0.00 | 0.00 | 60 | 1008.1 |
| 20260830053056 | 83 | 116 | 0.0 | 5.0 | 0.00 | 0.00 | 0.00 | 59 | 1008.0 |
| 20260830051609 | 83 | 119 | 1.0 | 8.0 | 0.00 | 0.00 | 0.00 | 58 | 1008.0 |
| 20260830050055 | 83 | 246 | 1.0 | 8.0 | 0.00 | 0.00 | 0.00 | 58 | 1008.0 |
| 20260830044602 | 83 | 123 | 4.0 | 7.0 | 0.00 | 0.00 | 0.00 | 58 | 1008.0 |
| 20260830043053 | 83 | 103 | 2.0 | 6.0 | 0.00 | 0.00 | 0.00 | 58 | 1008.0 |
| 20260830041628 | 83 | 198 | 0.0 | 8.0 | 0.00 | 0.00 | 0.00 | 59 | 1008.0 |
| 20260830040052 | 83 | 144 | 0.0 | 3.0 | 0.00 | 0.00 | 0.00 | 60 | 1008.1 |
| 20260830034616 | 83 | 145 | 1.0 | 4.0 | 0.00 | 0.00 | 0.00 | 60 | 1008.1 |
| 20260830033051 | 84 | 133 | 0.0 | 3.0 | 0.00 | 0.00 | 0.00 | 60 | 1008.2 |
| 20260830031551 | 84 | 89 | 1.0 | 5.0 | 0.00 | 0.00 | 0.00 | 61 | 1008.2 |
| 20260830030051 | 83 | 199 | 0.0 | 3.0 | 0.00 | 0.00 | 0.00 | 62 | 1008.2 |
| 20260830024550 | 84 | 199 | 0.0 | 2.0 | 0.00 | 0.00 | 0.00 | 62 | 1008.1 |
| 20260830023050 | 85 | 199 | 0.0 | 0.0 | 0.00 | 0.00 | 0.00 | 60 | 1008.0 |
| 20260830021550 | 85 | 199 | 0.0 | 4.0 | 0.00 | 0.00 | 0.00 | 60 | 1007.7 |
| 20260830020105 | 86 | 64 | 0.0 | 5.0 | 0.00 | 0.00 | 0.00 | 59 | 1007.5 |
| 20260830014559 | 86 | 203 | 0.0 | 5.0 | 0.00 | 0.00 | 0.00 | 59 | 1007.3 |
| 20260830013103 | 87 | 40 | 0.0 | 6.0 | 0.00 | 0.00 | 0.00 | 58 | 1007.1 |
| 20260830011550 | 87 | 238 | 0.0 | 4.0 | 0.00 | 0.00 | 0.00 | 60 | 1006.9 |
| 20260830010056 | 88 | 239 | 0.0 | 4.0 | 0.00 | 0.00 | 0.00 | 57 | 1006.9 |
| 20260830004552 | 89 | 349 | 0.0 | 4.0 | 0.00 | 0.00 | 0.00 | 56 | 1006.8 |
| 20260830003046 | 90 | 102 | 1.0 | 3.0 | 0.00 | 0.00 | 0.00 | 55 | 1006.7 |
| 20260830001544 | 92 | 95 | 0.0 | 3.0 | 0.00 | 0.00 | 0.00 | 54 | 1006.8 |
| 20260830000047 | 93 | 144 | 0.0 | 7.0 | 0.00 | 0.00 | 0.00 | 51 | 1007.0 |